Location: Santa Cruz del Valle
(40.2516°N, 5.0013°W)
Time: 01:02:11
(UTC+00:00)

Daily predictions for brighter satellites

Satellite Brightness Start Highest point End
(mag) Time Altitude Azimuth Time Altitude Azimuth Time Altitude Azimuth
Cosmos 304 Rocket 3.8 00:06:24 70° NW 00:06:24 70° NW 00:11:00 10° NNE
Cosmos 1892 4.5 00:09:05 25° NE 00:09:05 25° NE 00:10:51 10° NNE
Cosmos 332 Rocket 4.4 00:09:47 48° ENE 00:09:47 48° ENE 00:13:54 10° NNE
SL-12 R/B(2) 4.4 00:09:26 45° SE 00:11:00 50° ESE 00:19:43 10° NE
Cosmos 773 Rocket 3.8 00:06:04 10° NNW 00:11:14 82° ENE 00:11:17 82° E
CENTAUR R/B 2.9 00:12:18 41° ESE 00:12:18 41° ESE 00:18:00 10° NE
Cosmos 1980 3.7 00:10:17 10° NNW 00:15:58 71° ENE 00:16:41 63° ESE
Cosmos 2181 Rocket 3.9 00:09:48 10° N 00:15:59 77° E 00:16:56 64° SE
Cosmos 1503 Rocket 4.2 00:19:45 60° W 00:20:13 63° WNW 00:25:31 10° NNE
Cosmos 1777 Rocket 4.0 00:21:13 73° W 00:21:28 75° WNW 00:26:46 10° NNE
GEOS 3 Rocket 3.5 00:17:03 10° NE 00:22:02 73° ESE 00:22:02 73° ESE
H-2A R/B 2.5 00:20:35 10° NNE 00:24:02 58° NNE 00:24:02 58° NNE
Cosmos 2297 Rocket 2.4 00:24:23 56° WSW 00:25:15 63° WNW 00:30:52 10° NNE
Cosmos 2074 Rocket 4.0 00:24:31 60° SE 00:25:24 68° E 00:31:34 10° NNE
SL-4 R/B 3.1 00:21:53 10° NW 00:25:51 43° NNE 00:26:25 40° NE
Cosmos 2219 4.0 00:27:36 37° ESE 00:27:36 37° ESE 00:32:37 10° NE
Cosmos 2084 Rocket 4.0 00:29:51 56° N 00:29:51 56° N 00:33:17 10° NNE
Cosmos 2151 Rocket 3.9 00:25:24 10° N 00:29:10 64° N 00:29:10 64° N
ALOS 2 3.9 00:30:59 31° WNW 00:30:59 31° WNW 00:34:09 10° NNW
Meteor 2-5 Rocket 4.4 00:34:28 42° WSW 00:35:34 46° WNW 00:41:12 10° N
Okean 2 Rocket 3.3 00:32:09 10° N 00:36:03 68° NNW 00:36:03 68° NNW
Cosmos 1674 Rocket 4.0 00:41:51 56° NW 00:41:51 56° NW 00:45:36 10° N
Cosmos 1825 3.7 00:42:47 31° N 00:42:47 31° N 00:44:44 10° N
Cosmos 1378 Rocket 4.3 00:43:13 46° NW 00:43:13 46° NW 00:46:57 10° N
COSMOS 2428 4.0 00:41:01 10° NW 00:45:16 26° W 00:45:16 26° W
Cosmos 2219 Rocket 4.5 00:45:40 10° W 00:46:32 11° W 00:46:32 11° W
Cosmos 1025 Rocket 3.5 00:50:34 56° NE 00:50:34 56° NE 00:54:17 10° NNE
Cosmos 2221 Rocket 4.1 00:51:16 52° WNW 00:51:16 52° WNW 00:55:13 10° N
NOSS 3-2 (A) 3.2 00:56:57 57° ESE 00:56:57 57° ESE 01:02:33 10° NE
BREEZE-M DEB (TANK) 4.1 00:51:21 10° WNW 00:57:11 33° N 00:58:59 17° ENE
Cosmos 2263 Rocket 2.6 00:58:49 46° ESE 00:59:09 47° ESE 01:04:28 10° NE
Cosmos 1295 Rocket 4.4 00:59:17 61° SW 01:00:16 74° W 01:06:24 10° N
CZ-4C R/B 3.7 00:58:01 18° W 01:00:21 25° NW 01:04:54 10° NNE
Sich 1 Rocket 4.4 00:56:18 10° NNW 00:59:44 41° WNW 00:59:44 41° WNW
Cosmos 1898 Rocket 4.1 01:01:19 42° ESE 01:01:30 42° ESE 01:06:20 10° NNE
Resurs 1-4 Rocket 4.2 00:58:43 10° ENE 01:01:35 15° E 01:03:09 13° ESE
NOSS 3-2 (C) 4.4 01:03:08 26° ESE 01:03:08 26° ESE 01:07:42 10° NE
Nadezhda 3 Rocket 3.9 00:58:35 10° N 01:04:53 85° E 01:06:12 59° SSE
Cosmos 2184 Rocket 4.3 01:08:24 48° WSW 01:09:42 57° W 01:15:59 10° N
Helios 1A Rocket 3.8 01:12:04 39° ENE 01:12:04 39° ENE 01:15:30 10° N
Cosmos 1461 4.3 01:14:31 27° E 01:14:31 27° E 01:16:56 10° NE
Meteor 2-11 Rocket 4.4 01:14:51 58° SW 01:15:56 71° W 01:22:02 10° N
Nimbus 7 Rocket 4.4 01:13:06 10° NNE 01:19:11 82° WNW 01:20:30 57° SSW
Cosmos 2154 Rocket 4.4 01:25:11 44° WSW 01:26:32 51° WNW 01:32:38 10° N
Cosmos 967 Rocket 4.5 01:25:58 51° SW 01:27:42 80° WNW 01:34:14 10° NNE
In-Cosmos 22 Rocket 4.2 01:29:58 58° S 01:31:09 82° E 01:37:00 10° N
Cosmos 2327 Rocket 4.4 01:30:24 56° SSW 01:31:44 76° W 01:37:51 10° N
Okean 1 Rocket 4.4 01:33:38 10° NNW 01:36:40 27° WNW 01:36:40 27° WNW
SL-16 R/B 2.1 01:33:56 10° NNW 01:39:39 86° WSW 01:41:09 52° SSE
Cosmos 292 Rocket 3.9 01:43:03 54° W 01:43:31 57° WNW 01:48:15 10° N
SL-8 Rocket 3.9 01:43:18 48° S 01:45:11 82° E 01:51:23 10° N
Cosmos 2237 Rocket 3.7 01:42:20 10° NW 01:45:46 21° W 01:45:46 21° W
Cosmos 1869 3.7 01:43:02 10° N 01:46:39 50° E 01:46:40 50° E
Cosmos 2082 3.7 01:45:35 54° SW 01:46:51 74° WNW 01:52:29 10° NNE
Cosmos 1544 Rocket 4.2 01:44:32 10° N 01:48:53 51° E 01:49:57 41° SE
Cosmos 2227 Rocket 3.7 01:47:07 21° W 01:49:22 27° NW 01:54:08 10° N
IDEFIX/ARIANE 42P 2.8 01:48:34 10° NNE 01:53:45 60° E 01:55:13 43° SSE
Cosmos 1437 Rocket 4.5 01:53:28 22° ESE 01:54:14 23° E 01:57:18 10° NE
Cosmos 2228 4.0 01:50:18 10° N 01:54:24 41° ENE 01:55:50 31° ESE
Cosmos 1943 4.4 01:49:15 10° N 01:54:32 39° ENE 01:59:45 10° SE
CZ-2C R/B 3.6 01:51:20 19° SE 01:54:46 44° ENE 01:59:50 10° N
SL-24 R/B 4.5 01:54:10 56° SSW 01:55:08 72° W 02:00:39 10° N
CZ-2C R/B 4.1 01:53:45 10° NNE 01:58:45 38° E 02:00:50 27° SE
Cosmos 1975 Rocket 3.6 01:58:43 43° W 01:58:50 43° WNW 02:03:02 10° N
Meteor 1-11 4.3 01:57:52 49° SSW 01:59:27 72° W 02:05:16 10° N
CZ-2D R/B 2.7 01:56:39 10° NNE 02:01:50 50° E 02:03:47 33° SSE
CENTAUR R/B 3.6 01:59:25 21° W 02:02:39 35° NW 02:08:59 10° NNE
SL-4 R/B 4.5 02:00:43 10° WNW 02:01:05 12° WNW 02:01:05 12° WNW
Cosmos 1959 Rocket 4.4 02:03:07 41° S 02:05:29 88° W 02:11:52 10° N
COBE Rocket 4.0 02:03:08 10° N 02:08:17 71° WNW 02:09:38 49° SW
USA 238 DEB 4.0 02:06:34 34° SSE 02:08:49 49° ESE 02:15:04 10° NE
USA 238 4.0 02:06:36 33° SSE 02:08:52 48° ESE 02:15:07 10° NE
H-2A R/B 3.3 02:07:31 10° NNE 02:11:31 77° ESE 02:12:02 65° SSE
Cosmos 2219 4.4 02:09:29 24° W 02:11:39 31° WNW 02:16:38 10° N
Cosmos 858 Rocket 4.5 02:11:49 48° SW 02:13:15 75° WNW 02:18:29 10° NNE
Cosmos 1455 Rocket 4.3 02:11:04 10° NNW 02:14:37 28° W 02:14:37 28° W
Cosmos 2341 Rocket 4.2 02:13:09 38° SW 02:15:14 54° W 02:21:20 10° N
NPP 3.6 02:12:54 10° NNE 02:18:19 84° WNW 02:20:16 41° SSW
Cosmos 1867 4.0 02:18:38 36° S 02:20:33 53° ESE 02:25:53 10° NE
Cosmos 2227 4.2 02:18:50 40° SSW 02:21:01 81° ESE 02:26:47 10° NNE
Cosmos 1536 Rocket 3.5 02:27:08 48° SSW 02:28:21 84° W 02:32:48 10° N
ADEOS II 2.4 02:23:49 10° NNE 02:29:00 59° E 02:31:42 28° S
Cosmos 1900 4.5 02:28:54 40° SW 02:30:42 71° WNW 02:35:49 10° NNE
Cosmos 1844 4.4 02:27:53 25° SSE 02:30:52 47° ESE 02:36:24 10° NE
Cosmos 923 Rocket 4.3 02:30:32 10° NNW 02:35:34 48° WSW 02:37:05 37° SSW
Cosmos 1606 3.7 02:35:15 10° NNW 02:38:01 29° WNW 02:38:01 29° WNW
Resurs 1-4 Rocket 2.2 02:36:34 10° N 02:41:49 67° WNW 02:44:12 32° SW
Cosmos 2263 Rocket 3.7 02:40:29 17° W 02:43:16 25° NW 02:47:50 10° N
Cosmos 1821 Rocket 4.0 02:46:05 29° SSW 02:49:16 64° W 02:55:22 10° N
NOSS 3-2 (C) 3.9 02:50:32 23° WSW 02:53:30 43° NW 02:59:17 10° NNE
USA 267 3.3 02:51:10 10° NE 02:57:42 75° SE 03:02:00 23° SW
Meteor 1-27 4.3 02:53:17 10° NNW 02:59:02 62° W 03:02:58 20° S
AQUA 3.7 02:56:18 10° NNE 03:01:02 86° WNW 03:03:49 25° SSW
Cosmos 1844 Rocket 2.6 02:59:23 26° SSW 03:02:38 82° WNW 03:08:14 10° NNE
SAR-Lupe-4 4.2 03:00:05 10° NNE 03:03:34 50° E 03:05:42 21° S
Iridium 2 2.9 03:08:17 36° SSE 03:09:02 59° E 03:11:29 10° N
SL-24 DEB 4.1 03:05:15 10° N 03:09:48 74° W 03:12:48 21° SSW
ALOS 2.2 03:10:36 10° NNE 03:15:14 85° WNW 03:18:31 19° SSW
Cosmos 1892 Rocket 3.5 03:14:16 19° S 03:17:22 89° W 03:21:49 10° N
Cosmos 2058 Rocket 4.1 03:13:17 10° N 03:17:34 46° E 03:21:46 10° SSE
Cosmos 1818 4.3 03:14:50 10° NW 03:19:39 32° WSW 03:23:27 15° SSW
SL-16 R/B 2.5 03:14:16 10° S 03:20:31 74° WSW 03:26:46 10° NNW
Meteor 1-28 Rocket 3.2 03:18:30 22° S 03:20:33 53° W 03:24:01 10° NNW
SL-16 R/B 4.2 03:21:57 10° W 03:22:48 10° W 03:22:58 10° W
Delta 2 Rocket 3.8 03:21:47 22° WSW 03:23:51 39° S 03:27:53 10° ESE
Cosmos 2123 Rocket 4.0 03:21:28 10° N 03:27:40 84° W 03:33:52 10° S
Cosmos 1934 Rocket 4.0 03:22:44 13° SSW 03:28:22 76° W 03:34:46 10° N
Cosmos 1603 3.8 03:22:51 10° NNW 03:28:29 57° WSW 03:34:02 10° S
Cosmos 1437 Rocket 4.3 03:28:16 17° WSW 03:29:48 21° WNW 03:32:45 10° NNW
IDEFIX/ARIANE 42P 4.4 03:29:22 10° NNW 03:32:45 18° WNW 03:35:58 11° WSW
CZ-4 R/B 4.4 03:28:18 10° NNE 03:33:11 60° ESE 03:38:05 10° S
CZ-2C R/B 3.9 03:32:49 17° SW 03:35:12 22° W 03:39:20 10° NW
CZ-2C R/B 4.4 03:33:55 10° N 03:38:19 26° WNW 03:41:51 13° WSW
Cosmos 1943 4.1 03:33:39 10° NW 03:38:20 28° WSW 03:42:43 11° SSW
Cosmos 1544 2.4 03:39:11 13° S 03:41:25 68° E 03:44:03 10° NNE
CZ-2D R/B 3.7 03:37:31 10° NNW 03:41:27 21° WNW 03:45:04 11° WSW
SEDSat Delta rocket 4.1 03:41:26 16° SW 03:43:27 23° S 03:46:43 10° ESE
Cosmos 1626 Rocket 4.2 03:40:06 10° S 03:44:25 56° E 03:48:46 10° NNE
Orbus 7S? 4.3 03:46:57 10° WNW 03:50:16 38° SW 03:56:38 10° SSE
Envisat 3.0 03:47:10 10° N 03:52:16 79° WNW 03:57:19 10° SSW
Cosmos 1048 Rocket 4.3 03:49:45 10° NNW 03:54:45 47° WSW 03:59:48 10° S
ASTEX 1 4.5 03:54:05 12° SW 03:57:46 26° W 04:01:48 10° NNW
Cosmos 1125 Rocket 4.0 03:57:13 11° SW 04:02:06 47° WNW 04:07:14 10° N
Cosmos 921 Rocket 4.2 04:01:02 10° NW 04:04:15 21° W 04:07:25 10° SSW
CZ-2C R/B 2.2 04:01:03 10° NNE 04:05:38 89° W 04:10:13 10° SSW
Cosmos 1271 Rocket 3.9 04:02:21 10° SSE 04:05:41 38° E 04:09:02 10° NNE
ADEOS II 3.8 04:04:39 10° NNW 04:08:07 18° WNW 04:11:34 10° WSW
NOSS 2-2 (E) 3.5 04:06:00 10° SSW 04:09:26 51° ESE 04:12:29 10° NE
Okean 1-7 Rocket 4.0 04:07:25 10° S 04:11:53 68° E 04:16:20 10° NNE
Lacrosse 5 4.3 04:09:12 10° SSE 04:12:05 15° ESE 04:14:59 10° E
Cosmos 2150 Rocket 4.1 04:08:48 10° SSW 04:13:58 68° WNW 04:19:16 10° NNE
Timation 2 Rocket 4.5 04:09:25 10° SW 04:15:52 51° WNW 04:22:07 10° NNE
Cosmos 1833 Rocket 4.0 04:10:55 10° NNW 04:16:20 46° ENE 04:21:43 10° SE
Cosmos 1238 Rocket 3.0 04:14:12 10° NNW 04:17:16 34° W 04:20:01 10° SSW
Cosmos-2242 3.0 04:15:55 10° N 04:20:15 84° W 04:24:32 10° S
Meteor 2-3 Rocket 3.9 04:15:24 10° S 04:21:11 89° WNW 04:27:01 10° N
